Location: ?????
(31.8092°N, 35.2590°E)
Time: 19:56:25
(UTC+00:00)

SPOT 1/Viking Rocket - Pass Details

Date: 20 June 2021
Orbit: 778 x 793 km, 98.4° (Epoch: 02 August)

Event Time Altitude Azimuth Distance (km) Brightness Sun altitude
Exits shadow 19:00:04 48° 180° (S) 1,010 3.7 -22.7°
Maximum altitude 19:01:31 79° 258° (WSW) 795 3.5 -22.9°
Drops below altitude 10° 19:06:40 10° 345° (NNW) 2,332 6.9 -23.6°
Sets 19:09:00 0° 346° (NNW) 3,264 7.8 -23.9°
